{"data":{"norad_id":58192,"epoch":"2026-09-20T08:06:59.034528Z","epoch_age_seconds":157558,"freshness":"FRESH","line1":"1 58192U 23167T   26263.33818327  .00010359  00000+0  38530-3 0  9997","line2":"2 58192  43.0016 124.1619 0000049  68.9326 291.1531 15.27588568160758","mean_motion":15.27588568,"eccentricity":4.9e-6,"inclination_deg":43.0016,"raan_deg":124.1619,"arg_perigee_deg":68.9326,"mean_anomaly_deg":291.1531,"bstar":0.0003853,"rev_number":16075,"period_min":94.266219986532,"perigee_km":482.98982079909,"apogee_km":483.0570601714,"semimajor_km":6861.1604404852,"source":"CELESTRAK","updated_at":"2026-09-21T09:00:33.829350Z"}}